Torna al catalogo

THORAD DELTA 1 DEB

AttivoSSO
NORAD 8172·DEBRIS·🇺🇸 United States

Lanciato Nov 15, 1974 da Vandenberg Space Force Base

Loading…

Prossimi Passaggi (prossime 24 ore)

TLE

AggiornatoSource: Space-Track

Epoca: Sep 14, 2026, 12:49 UTC

1 08172U 74089AN  26257.53453966 -.00000049  00000-0 -10648-4 0  9997
2 08172 101.9772 276.8246 0052762 280.1728 235.0019 12.54932675374022

Traccia THORAD DELTA 1 DEB in tempo reale con AllMySat

Download on the App Store